TimeCST,TemperatureF,Dew PointF,Humidity,Sea Level PressureIn,VisibilityMPH,Wind Direction,Wind SpeedMPH,Gust SpeedMPH,PrecipitationIn,Events,Conditions,WindDirDegrees,DateUTC
12:53 AM,10.9,6.1,81,30.05,7.0,NNW,10.4,-,N/A,,Clear,330,2012-12-23 06:53:00
1:53 AM,10.0,6.1,84,30.04,7.0,NNW,10.4,-,N/A,,Clear,330,2012-12-23 07:53:00
2:53 AM,10.0,5.0,80,30.05,6.0,NNW,9.2,-,N/A,,Haze,340,2012-12-23 08:53:00
3:53 AM,10.9,6.1,81,30.06,6.0,NNW,10.4,-,N/A,,Haze,340,2012-12-23 09:53:00
4:53 AM,10.9,6.1,81,30.08,6.0,NNW,11.5,-,N/A,,Haze,340,2012-12-23 10:53:00
5:35 AM,10.4,6.8,85,30.03,4.0,North,16.1,-,N/A,,Scattered Clouds,360,2012-12-23 11:35:00
5:44 AM,10.4,8.6,92,30.03,4.0,North,13.8,-,N/A,,Mostly Cloudy,10,2012-12-23 11:44:00
5:53 AM,12.0,9.0,88,30.09,4.0,NNE,13.8,-,N/A,,Overcast,20,2012-12-23 11:53:00
6:13 AM,12.2,10.4,92,30.02,3.0,NNE,11.5,-,N/A,,Overcast,20,2012-12-23 12:13:00
6:38 AM,14.0,12.2,93,30.03,2.5,NNE,16.1,-,N/A,,Overcast,20,2012-12-23 12:38:00
6:51 AM,15.8,12.2,86,30.03,3.0,NNE,9.2,-,N/A,,Overcast,20,2012-12-23 12:51:00
6:53 AM,15.1,12.0,88,30.09,3.0,NNE,10.4,-,N/A,,Overcast,20,2012-12-23 12:53:00
7:53 AM,16.0,12.9,88,30.10,3.0,North,15.0,-,N/A,,Overcast,10,2012-12-23 13:53:00
8:07 AM,15.8,12.2,86,30.05,4.0,NNE,10.4,-,N/A,,Overcast,20,2012-12-23 14:07:00
8:53 AM,16.0,12.9,88,30.10,4.0,NNE,12.7,-,N/A,,Overcast,20,2012-12-23 14:53:00
9:53 AM,17.1,12.9,84,30.12,5.0,NE,13.8,-,N/A,,Overcast,40,2012-12-23 15:53:00
10:53 AM,17.1,12.9,84,30.12,5.0,NNE,10.4,-,N/A,,Overcast,30,2012-12-23 16:53:00
11:53 AM,17.1,12.9,84,30.09,5.0,NE,10.4,-,N/A,,Overcast,50,2012-12-23 17:53:00
12:53 PM,18.0,12.9,81,30.07,5.0,ENE,9.2,-,N/A,,Haze,60,2012-12-23 18:53:00
1:53 PM,18.0,12.9,81,30.07,5.0,ENE,6.9,-,N/A,,Haze,70,2012-12-23 19:53:00
2:53 PM,19.0,14.0,81,30.09,5.0,NE,4.6,-,N/A,,Haze,40,2012-12-23 20:53:00
3:53 PM,19.0,12.9,77,30.09,6.0,NNE,5.8,-,N/A,,Haze,30,2012-12-23 21:53:00
4:53 PM,18.0,12.9,81,30.08,6.0,NE,4.6,-,N/A,,Haze,50,2012-12-23 22:53:00
5:53 PM,18.0,12.9,81,30.09,8.0,NNE,5.8,-,N/A,,Overcast,30,2012-12-23 23:53:00
6:53 PM,17.1,12.0,81,30.06,8.0,NE,6.9,-,N/A,,Overcast,40,2012-12-24 00:53:00
7:53 PM,17.1,12.0,81,30.05,8.0,NE,5.8,-,N/A,,Overcast,50,2012-12-24 01:53:00
8:36 PM,15.8,10.4,79,29.99,8.0,NNE,4.6,-,N/A,,Scattered Clouds,30,2012-12-24 02:36:00
8:53 PM,16.0,10.9,81,30.05,8.0,NNW,5.8,-,N/A,,Clear,340,2012-12-24 02:53:00
9:53 PM,14.0,10.0,84,30.04,8.0,NE,4.6,-,N/A,,Scattered Clouds,40,2012-12-24 03:53:00
10:53 PM,12.9,9.0,84,30.03,8.0,East,6.9,-,N/A,,Clear,100,2012-12-24 04:53:00
11:53 PM,9.0,5.0,84,30.05,8.0,West,4.6,-,N/A,,Mostly Cloudy,280,2012-12-24 05:53:00